Terminal Aerodrome Forecast
Issued by NWS

Home | Current Version | Previous Version | Text Only | Print | Product List | Glossary On
Versions: 1 2 3 4 5 6 7 8 9 10 11 12 13 14 15 16 17 18 19 20 21 22 23 24 25 26 27 28 29 30 31 32 33 34 35 36 37 38 39 40 41 42 43 44 45 46 47 48 49 50
000
FTUS41 KCTP 131742
TAFBFD
TAF
KBFD 131742Z 1318/1418 29012G18KT 4SM -SN OVC025
     FM132200 25005KT 1 1/2SM -SN OVC015
     FM140000 16003KT 1/2SM SN OVC008
     FM141400 33011KT 3SM -SHSN OVC015
     FM141600 32012G19KT P6SM OVC050=

USA.gov is the U.S. government's official web portal to all federal, state and local government web resources and services.